TimeEST,TemperatureF,Dew PointF,Humidity,Sea Level PressureIn,VisibilityMPH,Wind Direction,Wind SpeedMPH,Gust SpeedMPH,PrecipitationIn,Events,Conditions,WindDirDegrees,DateUTC
12:54 AM,37.0,35.1,93,30.19,10.0,Calm,Calm,-,N/A,,Clear,0,2014-01-13 05:54:00
1:54 AM,36.0,35.1,97,30.19,10.0,Calm,Calm,-,N/A,,Clear,0,2014-01-13 06:54:00
2:54 AM,35.1,34.0,96,30.19,10.0,Calm,Calm,-,N/A,,Clear,0,2014-01-13 07:54:00
3:54 AM,34.0,33.1,96,30.19,10.0,Calm,Calm,-,N/A,,Clear,0,2014-01-13 08:54:00
4:54 AM,33.1,32.0,96,30.19,10.0,Calm,Calm,-,N/A,,Clear,0,2014-01-13 09:54:00
5:54 AM,33.1,32.0,96,30.18,9.0,Calm,Calm,-,N/A,,Clear,0,2014-01-13 10:54:00
6:54 AM,33.1,30.9,92,30.20,10.0,Calm,Calm,-,N/A,,Clear,0,2014-01-13 11:54:00
7:54 AM,34.0,33.1,96,30.21,10.0,Calm,Calm,-,N/A,,Clear,0,2014-01-13 12:54:00
8:54 AM,43.0,39.0,86,30.20,10.0,Calm,Calm,-,N/A,,Clear,0,2014-01-13 13:54:00
9:54 AM,51.1,39.9,66,30.20,10.0,Calm,Calm,-,N/A,,Clear,0,2014-01-13 14:54:00
10:54 AM,55.9,37.9,51,30.18,10.0,South,8.1,-,N/A,,Clear,190,2014-01-13 15:54:00
11:54 AM,57.9,37.0,46,30.15,10.0,South,11.5,19.6,N/A,,Clear,190,2014-01-13 16:54:00
12:54 PM,60.1,37.9,44,30.12,10.0,South,9.2,-,N/A,,Clear,180,2014-01-13 17:54:00
1:54 PM,60.1,37.0,42,30.09,10.0,SSW,8.1,-,N/A,,Clear,210,2014-01-13 18:54:00
2:54 PM,60.1,37.9,44,30.07,10.0,South,8.1,-,N/A,,Clear,180,2014-01-13 19:54:00
3:54 PM,60.1,39.0,46,30.06,10.0,Variable,5.8,-,N/A,,Clear,0,2014-01-13 20:54:00
4:54 PM,57.9,42.1,56,30.04,10.0,SSE,3.5,-,N/A,,Clear,150,2014-01-13 21:54:00
5:54 PM,54.0,43.0,66,30.01,10.0,Calm,Calm,-,N/A,,Clear,0,2014-01-13 22:54:00
6:54 PM,51.1,46.0,83,30.01,10.0,Calm,Calm,-,N/A,,Overcast,0,2014-01-13 23:54:00
7:54 PM,54.0,43.0,66,30.02,10.0,Calm,Calm,-,N/A,,Overcast,0,2014-01-14 00:54:00
8:54 PM,54.0,45.0,72,30.02,10.0,Calm,Calm,-,N/A,,Mostly Cloudy,0,2014-01-14 01:54:00
9:54 PM,54.0,44.1,69,30.01,10.0,Calm,Calm,-,N/A,,Partly Cloudy,0,2014-01-14 02:54:00
10:54 PM,53.1,44.1,71,29.99,10.0,Calm,Calm,-,N/A,,Clear,0,2014-01-14 03:54:00
11:54 PM,53.1,44.1,71,29.97,10.0,Calm,Calm,-,N/A,,Mostly Cloudy,0,2014-01-14 04:54:00